Location: Austin
(30.3000°N, 97.7500°W)
Time: 05:19:03
(UTC-06:00)

Meteor 2-20 Rocket - Pass Details

Date: 03 March 2026
Orbit: 873 x 1022 km, 82.5° (Epoch: 5 March)

Event Time Altitude Azimuth Distance (km) Brightness Sun altitude
Rises 20:23:24 0° 353° (N) 3,749 7.7 -24.9°
Reaches altitude 10° 20:25:59 10° 353° (N) 2,783 7.0 -25.5°
Maximum altitude 20:32:24 87° 268° (W) 988 4.4 -26.9°
Enters shadow 20:36:26 23° 177° (S) 1,907 5.9 -27.7°
